Home > Weather > Włocławek > Past weeks

Flag for Poland Weather for the Past 2 Weeks in Włocławek, Poland

Now
37 °F

Rain showers. Overcast.


Feels Like: 32 °F
Forecast: 34 / 41 °F
Wind: 6 mph from Southwest

Location: Plock

Current Time: Feb 12, 2016 at 5:29:23 AM

Latest Report: Feb 12, 2016 at 4:00 AM


Visibility: 4 mi

Pressure: 29.61 "Hg

Humidity: 93%

Dew point: 35 °F

Location of WłocławekLocation

Historic Weather in Włocławek — Graph

°F

Włocławek Temperature Yesterday

Maximum temperature yesterday: 39 °F (at 3:00 PM)
Minimum temperature yesterday: 35 °F (at 7:00 PM)
Average temperature yesterday: 37 °F

High & Low Weather Summary for the Past Weeks

 TemperatureHumidityPressure
High51 °F (Feb 2, 3:00 PM)96% (Feb 1, 9:00 PM)30.22 "Hg (Feb 1, 9:00 PM)
Low32 °F (Jan 29, 7:00 AM)54% (Feb 8, 2:00 PM)29.21 "Hg (Feb 10, 5:00 AM)
Average41 °F78%29.80 "Hg
* Reported Jan 27 9:00 PM — Feb 11 9:00 PM, Włocławek, Weather by CustomWeather, © 2016

Note: Actual official high and low records may vary slightly from our data, if they occured in-between our weather recording intervals... More about our weather records

Advertising

Włocławek Weather History for the Previous 24 Hours

 ConditionsComfort  
Time TempWeatherWind HumidityBarometerVisibility
9:00 PM
Thu, Feb 11
37 °FFog.5 mph94%29.55 "Hg4 mi
8:00 PM36 °FChilly.6 mph94%29.54 "Hg6 mi
7:00 PM35 °FLight rain. Overcast.5 mph92%29.50 "Hg2 mi
6:00 PM35 °FRain. Overcast.5 mph93%29.50 "Hg2 mi
5:00 PM37 °FChilly.3 mph91%29.47 "Hg7 mi
4:00 PM39 °FChilly.6 mph85%29.44 "Hg6 mi
3:00 PM39 °FFog.5 mph86%29.44 "Hg6 mi
2:00 PM39 °FFog.5 mph87%29.44 "Hg5 mi
1:00 PM39 °FFog.5 mph84%29.44 "Hg5 mi
12:00 PM38 °FFog.5 mph85%29.41 "Hg5 mi
11:00 AM37 °FFog.5 mph87%29.41 "Hg5 mi
10:00 AM36 °FChilly.5 mph83%29.41 "Hg9 mi
9:00 AM36 °FChilly.6 mph83%29.41 "Hg8 mi
8:00 AM36 °FChilly.5 mph85%29.38 "Hg7 mi
7:00 AM36 °FChilly.3 mph86%29.38 "Hg6 mi
5:00 AM36 °FChilly.5 mph81%29.35 "Hg7 mi
Weather by CustomWeather, © 2016

See weather overviewHow to use our weather pages